Regional Weather Roundup
Issued by NWS Albany, NY

Home | Current Version | Previous Version | Text Only | Print | Product List | Glossary On
Versions: 1 2 3 4 5 6 7 8 9 10 11 12 13 14 15 16 17 18 19 20 21 22 23 24 25 26 27 28 29 30 31 32 33 34 35 36 37 38 39 40 41 42 43 44 45 46 47 48 49 50
000
ASUS41 KALY 281910
RWRALY

NEW YORK STATE HOURLY WEATHER ROUNDUP
NATIONAL WEATHER SERVICE ALBANY NY
300 PM EDT TUE JUL 28 2015

NOTE: "FAIR" INDICATES FEW OR NO CLOUDS BELOW 12,000 FEET WITH NO
SIGNIFICANT WEATHER AND/OR NO OBSTRUCTIONS TO VISIBILITY.

NYZ032-033-038>043-046>054-057>066-NYZ062>081-282000-
EAST


CITY           SKY/WX    TMP DP  RH WIND       PRES   REMARKS
ALBANY         PTSUNNY   91  64  40 N6        29.94F HX  92
GLENS FALLS    SUNNY     87  65  47 CALM      29.94S
POUGHKEEPSIE   MOSUNNY   91  62  37 CALM      29.94F HX  91
NEWBURGH       MOSUNNY   90  64  43 W18       29.97  HX  91
MONTGOMERY     MOSUNNY   92  64  39 NW7       29.96F HX  93
WHITE PLAINS   MOSUNNY   88  63  43 VRB5      29.96F
ISLIP          CLOUDY    87  70  56 SW10      29.94F HX  92
NEW YORK CITY  PTSUNNY   93  56  28 NE6       29.93F HX  91
CENTRAL PARK   SUNNY     95  60  31 VRB6      29.97F HX  95
$$

NYZ005>009-017-018-044>046-055-056-282000-
CENTRAL


CITY           SKY/WX    TMP DP  RH WIND       PRES   REMARKS
FULTON         SUNNY     87  62  43 W9G18     30.00S
SYRACUSE       MOSUNNY   89  69  51 W7        29.98F HX  93
ROME           SUNNY     86  67  52 W8G20     29.99F
ELMIRA         SUNNY     88  63  43 S7        30.00F
BINGHAMTON     MOSUNNY   84  64  50 N8        30.04F
MONTICELLO     PTSUNNY   88  63  42 NW6       30.04S
$$

NYZ026>034-041>043-282000-
NORTH


CITY           SKY/WX    TMP DP  RH WIND       PRES   REMARKS
WATERTOWN      MOSUNNY   84  65  52 W9        29.99S
FORT DRUM      NOT AVBL
MASSENA        MOSUNNY   89  65  44 W8        29.95S HX  91
SARANAC LAKE   MOSUNNY   84  57  39 W7        30.01R
PLATTSBURGH    MOSUNNY   82  65  56 SE8       29.95S
$$

NYZ001>004-010>016-019>021-282000-
WEST


CITY           SKY/WX    TMP DP  RH WIND       PRES   REMARKS
NIAGARA FALLS  PTSUNNY   87  62  43 N7        29.99F
BUFFALO        MOSUNNY   89  62  40 SW12      30.00F
DUNKIRK        SUNNY     84  62  47 N6        30.03F
JAMESTOWN      MOSUNNY   84  55  37 N5        30.07F
WELLSVILLE     SUNNY     86  53  32 NW7       30.10F
ROCHESTER      MOSUNNY   89  61  38 NW10      30.00F
PENN YAN       MOSUNNY   87  61  41 W7        30.03S
$$

             KEY
       WCI = WIND CHILL INDEX
       VSB = VISIBILITY
       HX  = HEAT INDEX
$$


USA.gov is the U.S. government's official web portal to all federal, state and local government web resources and services.